Weather History for Alamogordo, NM

Change the Weather History Date:

Sunday, May 5, 2013

  Actual Average Record
Temperature  
Mean Temperature 68 °F -  
Max Temperature 80 °F 82 °F 95 °F (1952)
Min Temperature 57 °F 52 °F 34 °F (1953)
Cooling Degree Days 4    
Growing Degree Days 18 (Base 50)    
Moisture  
Dew Point 18 °F    
Average Humidity 14    
Maximum Humidity 21    
Minimum Humidity 11    
Precipitation  
Precipitation 0.00 in - - ()
Sea Level Pressure  
Sea Level Pressure 30.04 in    
Wind  
Wind Speed 11 mph (South)    
Max Wind Speed 23 mph    
Max Gust Speed 33 mph    
Visibility 10 miles    
Events      
Averages and records for this station are not official NWS values.
T = Trace of Precipitation, MM = Missing Value Source: NWS Daily Summary

Daily Weather History Graph

Daily Weather History Graph

Search for Another Location

Airport:

Trip Planner

Search our weather history database for the weather conditions in past years. The results will help you decide how hot, cold, wet, or windy it might be!

Date:

Astronomy

May. 05, 2013 Rise Set
Actual Time 6:12 AM MDT 7:49 PM MDT
Civil Twilight 5:46 AM MDT 8:15 PM MDT
Nautical Twilight 5:14 AM MDT 8:47 PM MDT
Astronomical Twilight 4:40 AM MDT 9:21 PM MDT
Moon 3:31 AM MDT (5/5) 4:03 PM MDT (5/5)
Length of Visible Light 14h 29m
Length of Day
13h 36m
Waning Crescent, 17% of the Moon is Illuminated
May 5
Waning Crescent
May 9
New
May 17
First Quarter
May 24
Full
May 31
Last Quarter

Hourly Weather History & Observations

Time (MDT) Temp. Dew Point Humidity Pressure Visibility Wind Dir Wind Speed Gust Speed Precip Events Conditions
12:15 AM 59.0 °F 8.6 °F 14% 30.00 in 10.0 mi NW 12.7 mph - N/A   Clear
12:35 AM 59.0 °F 6.8 °F 13% 30.02 in 10.0 mi NNW 10.4 mph - N/A   Clear
12:55 AM 59.0 °F 8.6 °F 14% 30.03 in 10.0 mi NNW 9.2 mph - N/A   Clear
1:15 AM 59.0 °F 8.6 °F 14% 30.03 in 10.0 mi North 10.4 mph - N/A   Clear
1:35 AM 59.0 °F 10.4 °F 15% 30.04 in 10.0 mi NE 9.2 mph - N/A   Clear
1:55 AM 59.0 °F 8.6 °F 14% 30.03 in 10.0 mi North 8.1 mph - N/A   Clear
2:15 AM 62.6 °F 10.4 °F 13% 30.03 in 10.0 mi NNE 11.5 mph - N/A   Partly Cloudy
2:35 AM 64.4 °F 10.4 °F 12% 30.04 in 10.0 mi NNE 9.2 mph - N/A   Partly Cloudy
2:55 AM 64.4 °F 12.2 °F 13% 30.03 in 10.0 mi NE 6.9 mph - N/A   Scattered Clouds
3:15 AM 62.6 °F 12.2 °F 14% 30.03 in 10.0 mi ENE 8.1 mph - N/A   Partly Cloudy
3:35 AM 64.4 °F 15.8 °F 15% 30.03 in 10.0 mi ENE 6.9 mph - N/A   Partly Cloudy
3:55 AM 64.4 °F 23.0 °F 21% 30.03 in 10.0 mi ENE 10.4 mph - N/A   Partly Cloudy
4:15 AM 62.6 °F 12.2 °F 14% 30.04 in 10.0 mi West 4.6 mph - N/A   Scattered Clouds
4:55 AM 59.0 °F 10.4 °F 15% 30.03 in 10.0 mi NE 4.6 mph - N/A   Mostly Cloudy
5:15 AM 59.0 °F 10.4 °F 15% 30.04 in 10.0 mi NNE 8.1 mph - N/A   Scattered Clouds
5:35 AM 57.2 °F 10.4 °F 16% 30.04 in 10.0 mi North 9.2 mph - N/A   Scattered Clouds
5:55 AM 57.2 °F 10.4 °F 16% 30.04 in 10.0 mi North 9.2 mph - N/A   Scattered Clouds
6:15 AM 57.2 °F 10.4 °F 16% 30.06 in 10.0 mi North 5.8 mph - N/A   Partly Cloudy
6:35 AM 59.0 °F 12.2 °F 16% 30.07 in 10.0 mi North 8.1 mph - N/A   Mostly Cloudy
6:55 AM 59.0 °F 12.2 °F 16% 30.08 in 10.0 mi NNE 10.4 mph - N/A   Mostly Cloudy
7:15 AM 59.0 °F 14.0 °F 17% 30.09 in 10.0 mi NNE 11.5 mph - N/A   Scattered Clouds
7:35 AM 60.8 °F 14.0 °F 16% 30.10 in 10.0 mi NNE 10.4 mph - N/A   Mostly Cloudy
7:55 AM 64.4 °F 14.0 °F 14% 30.11 in 10.0 mi NNE 11.5 mph - N/A   Overcast
8:15 AM 64.4 °F 14.0 °F 14% 30.12 in 10.0 mi North 11.5 mph - N/A   Mostly Cloudy
8:35 AM 66.2 °F 15.8 °F 14% 30.12 in 10.0 mi North 8.1 mph - N/A   Clear
8:55 AM 68.0 °F 15.8 °F 13% 30.12 in 10.0 mi NNW 5.8 mph - N/A   Partly Cloudy
9:15 AM 68.0 °F 15.8 °F 13% 30.13 in 10.0 mi NW 8.1 mph 16.1 mph N/A   Clear
9:35 AM 68.0 °F 15.8 °F 13% 30.13 in 10.0 mi WNW 9.2 mph - N/A   Clear
9:55 AM 69.8 °F 15.8 °F 13% 30.13 in 10.0 mi West 8.1 mph - N/A   Partly Cloudy
10:15 AM 69.8 °F 15.8 °F 13% 30.14 in 10.0 mi WSW 8.1 mph - N/A   Scattered Clouds
10:35 AM 68.0 °F 15.8 °F 13% 30.14 in 10.0 mi WSW 8.1 mph - N/A   Scattered Clouds
10:55 AM 71.6 °F 15.8 °F 12% 30.14 in 10.0 mi WSW 5.8 mph - N/A   Partly Cloudy
11:15 AM 71.6 °F 15.8 °F 12% 30.13 in 10.0 mi West 5.8 mph - N/A   Scattered Clouds
11:35 AM 73.4 °F 17.6 °F 12% 30.12 in 10.0 mi SSW 11.5 mph 19.6 mph N/A   Scattered Clouds
12:15 PM 73.4 °F 19.4 °F 13% 30.10 in 10.0 mi South 20.7 mph 24.2 mph N/A   Clear
12:35 PM 77.0 °F 21.2 °F 12% 30.09 in 10.0 mi South 17.3 mph 25.3 mph N/A   Clear
12:55 PM 77.0 °F 21.2 °F 12% 30.09 in 10.0 mi SSW 23.0 mph 28.8 mph N/A   Clear
1:15 PM 77.0 °F 21.2 °F 12% 30.08 in 10.0 mi SSW 23.0 mph 31.1 mph N/A   Clear
1:35 PM 77.0 °F 21.2 °F 12% 30.07 in 10.0 mi South 20.7 mph 27.6 mph N/A   Partly Cloudy
1:55 PM 78.8 °F 21.2 °F 12% 30.06 in 10.0 mi South 21.9 mph 31.1 mph N/A   Partly Cloudy
2:15 PM 77.0 °F 23.0 °F 13% 30.05 in 10.0 mi South 23.0 mph 33.4 mph N/A   Clear
2:35 PM 78.8 °F 23.0 °F 13% 30.04 in 10.0 mi South 21.9 mph 29.9 mph N/A   Clear
2:55 PM 78.8 °F 23.0 °F 13% 30.03 in 10.0 mi South 20.7 mph 29.9 mph N/A   Clear
3:15 PM 80.6 °F 23.0 °F 12% 30.03 in 10.0 mi SSW 15.0 mph 26.5 mph N/A   Clear
3:35 PM 80.6 °F 23.0 °F 12% 30.02 in 10.0 mi South 19.6 mph 26.5 mph N/A   Clear
3:55 PM 80.6 °F 24.8 °F 13% 30.01 in 10.0 mi South 17.3 mph 27.6 mph N/A   Clear
4:15 PM 80.6 °F 21.2 °F 11% 30.00 in 10.0 mi South 19.6 mph 29.9 mph N/A   Clear
4:35 PM 78.8 °F 23.0 °F 13% 30.01 in 10.0 mi SSE 19.6 mph 31.1 mph N/A   Clear
4:55 PM 77.0 °F 23.0 °F 13% 30.00 in 10.0 mi South 23.0 mph 28.8 mph N/A   Clear
5:15 PM 77.0 °F 23.0 °F 13% 30.00 in 10.0 mi SSE 23.0 mph 31.1 mph N/A   Clear
5:35 PM 80.6 °F 23.0 °F 12% 29.99 in 10.0 mi SSE 21.9 mph 29.9 mph N/A   Clear
6:15 PM 78.8 °F 23.0 °F 13% 29.99 in 10.0 mi SSE 17.3 mph 25.3 mph N/A   Clear
6:35 PM 77.0 °F 23.0 °F 13% 29.99 in 10.0 mi SSE 15.0 mph 20.7 mph N/A   Clear
6:55 PM 75.2 °F 23.0 °F 14% 29.98 in 10.0 mi SE 15.0 mph 21.9 mph N/A   Clear
7:15 PM 75.2 °F 23.0 °F 14% 29.98 in 10.0 mi SSE 16.1 mph - N/A   Clear
7:35 PM 73.4 °F 23.0 °F 15% 29.98 in 10.0 mi SE 10.4 mph - N/A   Clear
7:55 PM 71.6 °F 23.0 °F 16% 29.98 in 10.0 mi SE 9.2 mph - N/A   Clear
8:35 PM 71.6 °F 23.0 °F 16% 29.98 in 10.0 mi SSE 9.2 mph - N/A   Clear
8:55 PM 68.0 °F 23.0 °F 18% 29.98 in 10.0 mi South 8.1 mph - N/A   Clear
9:15 PM 68.0 °F 23.0 °F 18% 29.98 in 10.0 mi South 10.4 mph - N/A   Clear
9:35 PM 68.0 °F 23.0 °F 18% 29.98 in 10.0 mi South 9.2 mph - N/A   Clear
9:55 PM 66.2 °F 23.0 °F 19% 29.98 in 10.0 mi South 9.2 mph - N/A   Clear
10:15 PM 68.0 °F 23.0 °F 18% 29.98 in 10.0 mi South 8.1 mph - N/A   Clear
10:35 PM 66.2 °F 23.0 °F 19% 29.98 in 10.0 mi SSE 10.4 mph - N/A   Clear
10:55 PM 68.0 °F 23.0 °F 18% 29.98 in 10.0 mi South 8.1 mph - N/A   Clear
11:15 PM 68.0 °F 23.0 °F 18% 29.98 in 10.0 mi South 10.4 mph - N/A   Scattered Clouds
11:35 PM 69.8 °F 23.0 °F 17% 29.98 in 10.0 mi South 11.5 mph - N/A   Scattered Clouds
11:55 PM 71.6 °F 21.2 °F 15% 29.98 in 10.0 mi South 9.2 mph - N/A   Partly Cloudy